Regional Weather Roundup
Issued by NWS

Home | Current Version | Previous Version | Text Only | Print | Product List | Glossary Off
Versions: 1 2 3 4 5 6 7 8 9 10 11 12 13 14 15 16 17 18 19 20 21 22 23 24 25 26 27 28 29 30 31 32 33 34 35 36 37 38 39 40 41 42 43 44 45 46 47 48 49 50

000
ASUS43 KLOT 281312
RWRIL

ILLINOIS REGIONAL WEATHER ROUNDUP
NATIONAL WEATHER SERVICE CHICAGO/ROMEOVILLE IL
800 AM CDT TUE JUL 28 2015

NOTE: "FAIR" INDICATES FEW OR NO CLOUDS BELOW 12,000 FEET WITH NO
SIGNIFICANT WEATHER AND/OR OBSTRUCTIONS TO VISIBILITY.

* THESE STATIONS ARE NOT UNDER NWS QUALITY CONTROL. THEY ALSO MAY NOT
  REPORT WEATHER SUCH AS PRECIPITATION OR FOG.

ILZ001-002-007-009-015-016-024-281400-
NORTHWEST ILLINOIS

CITY           SKY/WX    TMP DP  RH WIND       PRES   REMARKS
MOLINE         MOSUNNY   74  70  87 E7        29.95S
STERLING*      SUNNY     73  68  83 SE5       29.97F
SAVANNA*       SUNNY     76  66  70 SE6       29.96F
$$

ILZ003-004-008-010-011-017-018-281400-
NORTH CENTRAL ILLINOIS

CITY           SKY/WX    TMP DP  RH WIND       PRES   REMARKS
ROCKFORD       MOSUNNY   74  65  73 SE8       30.01R
FREEPORT*        N/A     71  66  85 SE9       29.99F
ROCHELLE*      SUNNY     72  67  82 SE6       30.01S
DE KALB*       SUNNY     72  66  79 SE7       30.02R
PERU*          SUNNY     75  68  77 E3        30.00R
$$

ILZ005-006-012>014-019>023-281400-
NORTHEAST ILLINOIS

CITY           SKY/WX    TMP DP  RH WIND       PRES   REMARKS
CHICAGO-OHARE  MOSUNNY   77  65  66 SE7       30.01R
CHICAGO-MIDWAY MOSUNNY   80  63  55 SE6       30.00S HX  81
AURORA         SUNNY     77  65  66 SE6       30.01R
LANSING*       SUNNY     75  62  63 E6        30.01R
JOLIET*        SUNNY     77  68  72 E5        30.00S
WAUKEGAN       SUNNY     75  68  78 SE7       30.01R
DUPAGE AIRPORT SUNNY     77  65  66 SE6       30.01R
KANKAKEE*      SUNNY     74  68  81 CALM      30.01R
WHEELING       SUNNY     76  67  73 CALM      30.02R
MORRIS*        SUNNY     74  68  80 E6        29.98S
ROMEOVILLE*    SUNNY     76  64  65 SE7       30.01R
NORTHERLY ISL    N/A     76  68  76 SE3         N/A
$$

LMZ740>746-281400-
SOUTHERN LAKE MICHIGAN

STATION/POSITION SKY/WX   TEMP    WIND        PRES    VSBY  WAVE
                          AIR SEA DIR/SP/G                  HT/PER
                          (F)     (DEG/KT/KT) (MB)    (MI)  (FT/S)
HARRISON CRIB              74     130/  8/  9   N/A
BURNHAM HARBOR             78     130/  4/  5   N/A
CALUMET HARBOR             75     140/  3/  4   N/A
BURNS HARBOR               77     140/  6/ 12 1016.6R
MICHIGAN CITY              73     110/  7/  8   N/A
MICHIGAN CITY 6N           75 74  160/  6/  8   N/A           1
ST. JOSEPH                 71 73  170/  8/  8   N/A           1
$$

ILZ025>027-034>036-040-047-049-050-058-095>099-281400-
WEST-CENTRAL ILLINOIS

CITY           SKY/WX    TMP DP  RH WIND       PRES   REMARKS
QUINCY         SUNNY     75  70  84 S7        29.94S
GALESBURG*     MOSUNNY   74  72  91 E3        29.96S FOG
MACOMB*        CLOUDY    73  73 100 SE3       29.98R FOG
JACKSONVILLE*  SUNNY     77  74  90 CALM      29.96R
PITTSFIELD*    SUNNY     76  72  88 S3        29.96S
$$

ILZ028>032-037-038-041>044-048-051>054-059>061-281400-
CENTRAL ILLINOIS

CITY           SKY/WX    TMP DP  RH WIND       PRES   REMARKS
PONTIAC        SUNNY     75  72  89 SE8       30.00R
BLOOMINGTON    SUNNY     76  74  93 SE3       30.00R
DECATUR        SUNNY     77  73  87 E7        29.97S
PEORIA         SUNNY     79  73  82 E5        29.98R HX  82
LACON*         SUNNY     73  68  82 CALM      29.98R
LINCOLN*       SUNNY     77  74  88 CALM      29.97R FOG
SPRINGFIELD    SUNNY     79  74  84 E5        29.97R HX  82
TAYLORVILLE    MOSUNNY   77  73  88 CALM      29.97R
$$

ILZ033-039-045-046-055>057-062-063-281400-
EAST-CENTRAL ILLINOIS

CITY           SKY/WX    TMP DP  RH WIND       PRES   REMARKS
CHAMPAIGN      SUNNY     76  73  91 E5        29.98S FOG
DANVILLE*      SUNNY     75  73  93 E5        29.96F FOG
RANTOUL*       SUNNY     77  73  88 SE3       29.99R FOG
MATTOON        MOSUNNY   76  71  85 S6        29.97S
PARIS*         MOSUNNY   76  75  99 SE3       29.99S FOG
$$

ILZ079-100>102-281400-
SOUTHWEST ILLINOIS

CITY           SKY/WX    TMP DP  RH WIND       PRES   REMARKS
ALTON          MOSUNNY   75  72  88 VRB3      29.96S
BELLEVILLE     SUNNY     77  76  99 E2        29.96R
CAHOKIA*       SUNNY     80  74  81 S3        29.96R HX  85
SPARTA*        SUNNY     75  74  96 CALM      29.98R
$$

ILZ064>066-069>071-074>076-080>082-084>086-088>090-092>094-281400-
SOUTH-CENTRAL ILLINOIS

CITY           SKY/WX    TMP DP  RH WIND       PRES   REMARKS
CARBONDALE     SUNNY     78  74  87 S6        29.97S HX  81
CAIRO*         SUNNY     80  78  92 CALM      29.97R HX  88
EFFINGHAM*     PTSUNNY   76  72  85 CALM      29.98F
MT. VERNON     MOSUNNY   77  70  78 CALM      29.98S
CENTRALIA*     MOSUNNY   77  72  84 CALM      29.98R
SALEM*         MOSUNNY   78  73  85 CALM      29.97S HX  80
METROPOLIS*    SUNNY     81  80  95 CALM      29.99R HX  91
$$

ILZ067-068-072-073-078-083-087-091-281400-
SOUTHEAST ILLINOIS

CITY           SKY/WX    TMP DP  RH WIND       PRES   REMARKS
LAWRENCEVILLE  CLOUDY    77  75  93 CALM      29.98R FOG
FLORA*         CLOUDY    76  73  92 CALM      29.97S
FAIRFIELD*     MOSUNNY   77  75  92 S3        29.97R
HARRISBURG*    MOSUNNY   77  76  98 CALM      29.99R
ROBINSON*      PTSUNNY   76  73  92 CALM      29.98R
CARMI*         MOSUNNY   77  70  80 CALM      29.97S
$$

ABBREVIATIONS USED IN REMARKS
   TC - TEMPERATURE IN CELSIUS
  WCI - WIND CHILL INDEX
   HX - HEAT INDEX
  VSB - VISIBILITY
$$



USA.gov is the U.S. government's official web portal to all federal, state and local government web resources and services.